Main page
METAR-TAF:

METAR-TAF

Airports :

Oil platform

Euro, Netherlands

latitude: 51-59-52N, longitude: 3-16-30E, elevation: 18 m

Current weather observation

The report was made 35 minutes ago, at 21:55 UTC
Wind 23 kt from the East/Northeast
Temperature 9°C
Humidity 71%
Pressure 1029 hPa
Visibility 10 km or more

METAR: EHSA 172155Z AUTO 07023KT 9999 ///////// 09/04 Q1029 W11/H15

Time: 23:30 (22:30 UTC)


TAF: missing

Weather observations and forecasts of more than 4000 airports (METAR and TAF reports).

The available stations are represented by yellow and red dots on the map.

Hover mouse over dot to see the name of the station.

Then click to see weather observations and forecasts.

To change the map : click on the green buttons with a black cross to zoom in, on the green button with a dash to zoom out, or on the green arrows for adjacent maps.


METAR-TAF: